Weather observations for the past three days for
Midland, Midland International Airport
Imperial (Metric)
Date Time (cdt) Wind (mph) Vis. (mi.) Weather Sky Cond. Temperature (ºF) Relative Humidity Wind Chill (°F) Heat Index (°F) Pressure Precipitation (in)
Air Dwpt 6 hour altimeter (in) sea level (mb) 1 hr 3 hr 6 hr
Max. Min.
18 10:53 S 18 G 32 10.00 Fair CLR 84.9 68 57% 88 29.8 1003.7
18 09:53 S 23 10.00 Fair and Breezy CLR 81 68 65% 84 29.8 1003.9
18 08:53 S 25 G 36 10.00 A Few Clouds and Breezy FEW017 77 68 74% 79 29.79 1003.5
18 07:53 Calm 10.00 Overcast OVC018 75 68 79% 76 29.8 1003.6
18 06:53 S 23 G 31 10.00 Overcast and Breezy OVC019 75 68 84.9 75 79% 76 29.78 1002.8
18 05:53 Calm 10.00 Fair CLR 75.9 66.9 74% 77 29.76 1002.1
18 04:53 Calm 10.00 Partly Cloudy SCT023 78.1 68 71% 80 29.75 1001.6
18 03:53 Calm 10.00 Fair CLR 79 66.9 67% 81 29.71 1000.4
18 02:53 Calm 10.00 Fair CLR 82 64.9 56% 84 29.72 1000.6
18 01:53 Calm 10.00 Fair CLR 84 61 46% 84 29.71 1000.1
18 00:53 Calm 10.00 Fair CLR 84.9 61 96.1 84.9 45% 85 29.68 999.4
17 23:53 SE 35 G 39 10.00 Fair and Windy CLR 86 60.1 42% 86 29.69 999.9
17 22:53 SE 35 G 39 10.00 Fair and Windy CLR 87.1 60.1 40% 87 29.69 1000.0
17 21:53 S 35 G 40 10.00 Fair and Windy CLR 88 60.1 39% 88 29.68 999.6
17 20:53 SE 33 G 39 10.00 Fair and Windy CLR 90 61 38% 90 29.67 999.3
17 19:53 S 29 10.00 Fair and Windy CLR 93.9 60.1 32% 94 29.66 999.1
17 18:53 S 24 G 32 10.00 Fair and Breezy CLR 96.1 59 99 91 29% 96 29.66 998.8
17 17:53 SE 26 G 32 10.00 Fair and Windy CLR 98.1 59 27% 98 29.67 999.0
17 16:53 S 24 G 32 10.00 Fair and Breezy CLR 99 60.1 28% 99 29.68 999.2
17 15:53 S 22 G 33 10.00 Fair and Breezy CLR 98.1 60.1 28% 98 29.69 999.8
17 14:53 S 26 G 32 10.00 Fair and Windy CLR 97 62.1 32% 98 29.72 1000.5
17 13:53 S 26 G 36 10.00 Fair and Windy CLR 95 63 35% 96 29.74 1001.3
17 12:53 S 25 G 35 10.00 Fair and Breezy CLR 91 64 91.9 75 41% 93 29.76 1002.0
17 11:53 S 25 G 33 10.00 Fair and Breezy CLR 88 64.9 46% 90 29.77 1002.7
17 10:53 S 22 G 31 10.00 Fair and Breezy CLR 84.9 66 53% 87 29.79 1003.3
17 09:53 S 22 G 33 10.00 Fair and Breezy CLR 80.1 66 62% 82 29.8 1003.8
17 08:53 S 26 G 35 10.00 Fair and Windy CLR 78.1 66 67% 80 29.81 1004.0
17 07:53 S 22 G 30 10.00 Fair and Breezy CLR 75 66 74% 76 29.8 1003.6
17 06:53 S 24 G 32 10.00 Fair and Breezy CLR 75 66 84 75 74% 76 29.79 1003.1
17 05:53 S 20 10.00 Fair CLR 75.9 66 72% 77 29.78 1002.8
17 04:53 S 23 G 32 10.00 Fair and Breezy CLR 78.1 64 62% 80 29.77 1002.5
17 03:53 S 22 10.00 Fair and Breezy CLR 79 60.1 52% 80 29.78 1002.8
17 02:53 S 21 10.00 Fair and Breezy CLR 81 60.1 49% 82 29.78 1002.6
17 01:53 S 20 G 30 10.00 Fair CLR 82.9 59 44% 83 29.79 1003.2
17 00:53 S 21 10.00 Fair and Breezy CLR 84 59 98.1 84 43% 84 29.8 1003.7
16 23:53 S 16 10.00 Fair CLR 84.9 59 42% 85 29.8 1003.8
16 22:53 S 16 10.00 Fair CLR 87.1 57.9 37% 86 29.78 1003.2
16 21:53 S 18 G 29 10.00 Fair CLR 89.1 59 36% 88 29.76 1002.4
16 20:53 S 23 G 32 10.00 Fair and Breezy CLR 91.9 59 33% 91 29.73 1001.5
16 19:53 S 23 G 30 10.00 Fair and Breezy CLR 96.1 57 27% 95 29.72 1001.0
16 18:53 SE 16 10.00 Fair CLR 98.1 57 99 90 25% 97 29.72 1001.0
16 17:53 S 15 G 23 10.00 Fair CLR 99 55.9 24% 98 29.74 1001.4
16 16:53 S 14 G 23 10.00 Fair CLR 99 59 27% 99 29.76 1001.9
16 15:53 SE 15 G 24 10.00 Fair CLR 98.1 60.1 28% 98 29.78 1002.6
16 14:53 S 17 G 24 10.00 Fair CLR 96.1 62.1 32% 97 29.79 1003.2
16 13:53 S 16 G 25 10.00 Fair CLR 93 64 38% 95 29.82 1004.1
16 12:53 S 20 G 31 10.00 Fair CLR 90 64.9 90 75 44% 92 29.84 1005.0
16 11:53 S 21 G 32 10.00 Fair and Breezy CLR 86 66 51% 88 29.86 1005.8
16 10:53 S 24 G 33 10.00 Fair and Breezy CLR 82 64.9 56% 84 29.87 1006.1
16 09:53 S 28 G 37 10.00 Fair and Windy CLR 79 64 60% 81 29.87 1006.1
16 08:53 S 25 G 35 10.00 Fair and Breezy CLR 77 62.1 60% 79 29.88 1006.4
16 07:53 S 24 G 30 10.00 Fair and Breezy CLR 75.9 64.9 69% 78 29.88 1006.3
16 06:53 SE 16 G 24 10.00 A Few Clouds FEW028 75.9 64.9 82.9 75.9 69% 78 29.88 1006.6
16 05:53 E 13 10.00 Fair CLR 77 62.1 60% 79 29.88 1006.4
16 04:53 NE 14 10.00 Fair CLR 78.1 59 52% 79 29.89 1006.4
16 03:53 S 14 10.00 Fair CLR 79 59 50% 80 29.82 1004.2
16 02:53 S 14 10.00 Fair CLR 80.1 57.9 47% 81 29.82 1004.1
16 01:53 S 14 10.00 Fair CLR 82 57.9 44% 82 29.84 1004.9
16 00:53 E 13 10.00 Fair CLR 82.9 57.9 96.1 82.9 43% 83 29.89 1006.7
15 23:53 S 20 10.00 Fair CLR 84.9 57 39% 84 29.84 1005.1
15 22:53 S 18 G 29 10.00 Fair CLR 87.1 57.9 37% 86 29.85 1005.2
15 21:53 S 20 10.00 Fair CLR 88 57.9 36% 87 29.82 1004.3
15 20:53 S 21 10.00 Fair and Breezy CLR 91 59 34% 90 29.8 1003.9
15 19:53 S 21 G 28 10.00 Fair and Breezy CLR 93.9 59 31% 93 29.8 1003.7
15 18:53 S 15 10.00 Fair CLR 95 59 97 89.1 30% 94 29.8 1003.9
15 17:53 S 20 G 26 10.00 Fair CLR 96.1 60.1 30% 96 29.82 1004.2
15 16:53 S 20 G 29 10.00 Fair CLR 97 60.1 29% 97 29.83 1004.8
15 15:53 S 20 G 33 10.00 Fair CLR 93.9 61 33% 94 29.86 1005.7
15 14:53 S 20 G 25 10.00 Fair CLR 93 62.1 36% 94 29.88 1006.4
15 13:53 S 17 G 30 10.00 Fair CLR 91 61 37% 91 29.92 1007.6
15 12:53 S 22 G 30 10.00 Fair and Breezy CLR 89.1 63 90 73.9 42% 90 29.94 1008.5
15 11:53 S 24 G 35 10.00 Fair and Breezy CLR 87.1 64 46% 88 29.96 1009.0
Date Time (cdt) Wind (mph) Vis. (mi.) Weather Sky Cond. Air Dwpt Max. Min. Relative Humidity Wind Chill (°F) Heat Index (°F) altimeter (in) sea level (mb) 1 hr 3 hr 6 hr
6 hour
Temperature (ºF) Pressure Precipitation (in)